Weather in Vladimirovka

Russia / Kursk Oblast     51°16′46″N   37°03′59″E
temp.,
°C
wind,
m/s
gust,
m/s
humid.,
%
clouds,
%
prec.,
mm/h
press.,
hPa
HPBL,
m
13 june, sun
sun1300:00+14w339411 0.0 100942
03:00+13w33950 0.0 100948
06:00+14wsw24950 0.0 1009136
09:00+19sw347999 0.0 1009523
12:00+22ssw446511 0.0 10091301
15:00+21ssw5674100 1.6 10091049
18:00+20sw4682100 2.1 1009588
21:00+17s3490100 2.4 101061
14 june, mon
mon1400:00+15s229053 0.0 101025
03:00+14sse33924 0.0 101240
06:00+15sse24905 0.0 101299
09:00+20se347579 0.0 1013446
12:00+23se446285 2.2 10141212
15:00+23sse3368100 4.9 1014668
18:00+23se017041 2.6 1013437
21:00+18ne228170 4.1 101411
15 june, tue
tue1500:00+16nne228895 0.9 101412
03:00+16ne2290100 0.9 101419
06:00+16ne249276 0.0 1014115
09:00+21nne348138 1.0 1013271
12:00+24ne456633 0.6 10121325
15:00+23ne447122 2.7 10111065
18:00+22e348224 2.3 1010644
21:00+18ese3392100 5.4 101140
16 june, wed
wed1600:00+16ese339361 0.0 101040
03:00+15sse128933 0.0 101011
06:00+16s1185100 0.0 101129
09:00+19s227670 0.0 1012254
12:00+24n006468 0.0 1012709
15:00+24n336317 0.3 10111068
18:00+20nne378711 2.9 1012166
21:00+18ne4109298 6.3 1014187
17 june, thu
thu1700:00+17ne4109693 4.0 1014241
03:00+16ne5129681 7.3 1015349
06:00+16ne6139630 0.0 1017446
09:00+19ne813795 0.0 1018681
12:00+21ne8107021 0.0 10191042
15:00+22ne796950 0.0 10191316
18:00+20ne812730 0.0 1020781
21:00+17ne6147521 0.0 1021500